User: anonymous   Login
Location: Unspecified
(0.0000°N, 0.0000°E)
Time: 12:53:11
(UTC+02:00)
Language:

Cosmos 1295 Rocket - Orbit

View from above orbital plane
View from above orbital plane
View from above satellite
View from above satellite

Ground track
Ground track

The orbit data is extracted from the following two-line orbital elements,

1 12682U 81077B   17290.52038264 -.00000049  00000-0 -62914-4 0  9992
2 12682  82.9130 284.6296 0034059   3.3923 356.7459 13.78536462819723
Epoch (UTC): 17 October 2017 12:29:21
Eccentricity: 0.0034059
inclination: 82.9130°
perigee height: 944 km
apogee height: 994 km
right ascension of ascending node: 284.6296°
argument of perigee: 3.3923°
revolutions per day: 13.78536462
mean anomaly at epoch: 356.7459°
orbit number at epoch: 81972

The dashed part of the orbit path shows where the satellite is in the earth's shadow,  

DLR